NI4CE-10 Weather Reports


Display with metric or nautical units.
time (UTC)temp
F
wind
direction
speed
MPH
gust
MPH
rain 1hr
in
rain 24hr
in
rain mn
in
humidity
%
barometer
mb
20260503023717 70 229 0.0 0.0 0.00 0.74 0.74 100 1015.7
20260503023603 70 229 0.0 0.0 0.00 0.74 0.74 100 1015.8
20260503023103 70 229 0.0 0.0 0.00 0.74 0.74 100 1015.7
20260503022603 70 229 0.0 0.0 0.00 0.74 0.74 100 1015.7
20260503022103 70 229 0.0 0.0 0.00 0.74 0.74 100 1015.9
20260503021603 70 229 0.0 0.0 0.00 0.74 0.74 100 1015.9
20260503021152 70 243 3.0 5.0 0.00 0.74 0.74 100 1016.0
20260503021103 70 229 0.0 3.0 0.00 0.74 0.74 100 1016.0
20260503020603 70 237 0.0 6.0 0.00 0.74 0.74 100 1015.9
20260503015603 70 225 2.0 4.0 0.00 0.74 0.74 100 1016.0
20260503015103 70 248 2.0 4.0 0.00 0.74 0.74 100 1016.0
20260503014731 70 257 0.0 5.0 0.00 0.74 0.74 100 1016.0
20260503014603 69 192 0.0 5.0 0.00 0.74 0.74 100 1016.0
20260503014150 70 257 0.0 5.0 0.00 0.74 0.74 100 1016.0
20260503014103 70 257 0.0 5.0 0.00 0.74 0.74 100 1016.0
20260503013603 69 201 0.0 5.0 0.01 0.74 0.74 100 1015.7
20260503013521 69 246 3.0 4.0 0.01 0.74 0.74 100 1015.6
20260503013103 69 246 3.0 4.0 0.01 0.74 0.74 100 1015.6
20260503012603 69 40 0.0 0.0 0.01 0.74 0.74 100 1014.9
20260503012254 69 106 0.0 0.0 0.01 0.74 0.74 100 1015.0
20260503012103 69 106 0.0 0.0 0.01 0.74 0.74 100 1014.7
20260503011603 69 106 0.0 0.0 0.01 0.74 0.74 100 1014.7
20260503011104 69 106 0.0 0.0 0.01 0.74 0.74 100 1015.0
20260503010754 70 289 0.0 2.0 0.00 0.73 0.73 100 1014.5
20260503010603 69 106 0.0 2.0 0.01 0.74 0.74 100 1014.7
20260503010103 69 156 2.0 3.0 0.01 0.74 0.74 100 1014.8
20260503005603 69 202 0.0 4.0 0.01 0.74 0.74 100 1015.1
20260503005103 70 268 0.0 0.0 0.01 0.74 0.74 100 1015.1
20260503004603 70 268 0.0 2.0 0.01 0.74 0.74 100 1014.6
20260503004103 70 254 2.0 3.0 0.01 0.74 0.74 100 1014.7
20260503003603 70 289 0.0 2.0 0.00 0.73 0.73 100 1014.5
20260503003442 70 192 0.0 6.0 0.01 0.73 0.73 100 1014.1
20260503003103 69 216 0.0 0.0 0.01 0.73 0.73 100 1013.7
20260503002603 70 192 0.0 6.0 0.01 0.73 0.73 100 1014.1
20260503002133 70 202 5.0 8.0 0.01 0.73 0.73 100 1014.8
20260503002103 70 180 0.0 6.0 0.01 0.73 0.73 100 1014.4
20260503001603 70 202 5.0 8.0 0.01 0.73 0.73 100 1014.8
20260503001548 69 188 4.0 8.0 0.01 0.73 0.73 100 1012.9
20260503001103 70 250 6.0 10.0 0.01 0.73 0.73 100 1014.8
20260503000603 70 210 7.0 9.0 0.01 0.73 0.73 100 1014.4
20260503000103 70 237 6.0 7.0 0.01 0.73 0.73 100 1013.9
20260502235603 69 188 4.0 8.0 0.01 0.73 0.73 100 1012.9
20260502235455 70 182 2.0 4.0 0.01 0.73 0.73 100 1013.4
20260502235103 70 188 2.0 6.0 0.01 0.73 0.73 100 1013.2
20260502234603 70 182 2.0 4.0 0.01 0.73 0.73 100 1013.4
20260502234502 70 165 0.0 0.0 0.02 0.72 0.72 100 1014.3
20260502234103 70 165 0.0 0.0 0.02 0.73 0.73 100 1013.9
20260502233603 70 165 0.0 0.0 0.02 0.73 0.73 100 1014.2
20260502233104 70 165 0.0 0.0 0.02 0.72 0.72 100 1013.8
20260502232604 70 165 0.0 0.0 0.02 0.72 0.72 100 1014.3
20260502232104 70 165 0.0 5.0 0.02 0.72 0.72 100 1014.6
20260502231604 70 154 0.0 0.0 0.03 0.72 0.72 100 1014.5
20260502231457 70 180 1.0 4.0 0.04 0.72 0.72 100 1014.2
20260502231403 70 154 0.0 0.0 0.04 0.72 0.72 100 1014.2
20260502231104 70 154 0.0 0.0 0.04 0.72 0.72 100 1014.2
20260502230604 70 154 0.0 4.0 0.04 0.72 0.72 100 1014.0
20260502230104 70 180 1.0 4.0 0.04 0.72 0.72 100 1014.2
20260502225604 70 187 3.0 4.0 0.05 0.72 0.72 100 1014.3
20260502225104 71 144 1.0 5.0 0.05 0.72 0.72 100 1014.2
20260502224604 71 195 2.0 6.0 0.05 0.72 0.72 100 1014.6
20260502224104 71 232 2.0 2.0 0.04 0.71 0.71 100 1014.1
20260502223627 71 180 0.0 0.0 0.03 0.70 0.70 100 1013.8
20260502223604 71 130 0.0 3.0 0.04 0.71 0.71 100 1014.0
20260502223104 71 180 0.0 0.0 0.03 0.70 0.70 100 1014.1
20260502222604 71 180 0.0 0.0 0.03 0.70 0.70 100 1013.8
20260502222232 71 180 0.0 0.0 0.07 0.70 0.70 100 1014.2
20260502222104 71 180 0.0 0.0 0.07 0.70 0.70 100 1014.2
20260502221604 71 180 0.0 0.0 0.07 0.69 0.69 100 1014.3
20260502221104 71 180 0.0 0.0 0.08 0.68 0.68 100 1013.8
20260502220604 71 180 0.0 0.0 0.09 0.68 0.68 100 1014.0
20260502220104 70 180 0.0 0.0 0.12 0.68 0.68 100 1014.2
20260502215604 71 180 0.0 3.0 0.15 0.67 0.67 100 1014.0
20260502215104 70 175 3.0 5.0 0.36 0.67 0.67 100 1014.2
20260502214715 70 156 2.0 5.0 0.61 0.67 0.67 100 1014.1
20260502214713 71 84 4.0 5.0 0.67 0.67 0.67 100 1013.7
20260502214604 70 156 2.0 5.0 0.61 0.67 0.67 100 1014.1
20260502214501 71 84 4.0 5.0 0.67 0.67 0.67 100 1013.7
20260502214104 71 84 4.0 5.0 0.67 0.67 0.67 100 1013.7
20260502213629 70 172 0.0 0.0 0.67 0.67 0.67 100 1014.3
20260502213604 70 172 0.0 0.0 0.67 0.67 0.67 100 1014.1
20260502213104 70 172 0.0 0.0 0.67 0.67 0.67 100 1014.3
20260502212604 70 172 0.0 0.0 0.67 0.67 0.67 100 1014.4
20260502212104 70 172 0.0 0.0 0.63 0.63 0.63 100 1014.3
20260502211604 70 172 0.0 4.0 0.62 0.62 0.62 100 1014.6
20260502211316 70 229 4.0 4.0 0.60 0.60 0.60 100 1014.7
20260502211104 70 229 4.0 4.0 0.60 0.60 0.60 100 1014.7
20260502210604 70 187 0.0 3.0 0.59 0.59 0.59 100 1014.2
20260502210104 70 206 1.0 2.0 0.56 0.56 0.56 100 1014.0
20260502205604 70 174 0.0 7.0 0.52 0.52 0.52 100 1013.8
20260502205104 72 291 4.0 22.0 0.30 0.30 0.30 100 1014.2
20260502204604 76 264 11.0 20.0 0.06 0.06 0.06 100 1013.9
20260502204104 80 336 10.0 21.0 0.00 0.00 0.00 100 1013.7
20260502203604 82 12 3.0 5.0 0.00 0.00 0.00 100 1013.3
20260502203104 82 251 4.0 6.0 0.00 0.00 0.00 100 1013.2
20260502202604 83 243 2.0 7.0 0.00 0.00 0.00 100 1013.3
20260502202223 83 293 1.0 9.0 0.00 0.00 0.00 100 1013.5
20260502202104 83 282 4.0 10.0 0.00 0.00 0.00 100 1013.5
20260502201604 83 293 1.0 9.0 0.00 0.00 0.00 100 1013.5
20260502201104 83 250 6.0 11.0 0.00 0.00 0.00 100 1013.5
20260502200604 83 277 8.0 10.0 0.00 0.00 0.00 100 1013.3
20260502200104 84 253 9.0 9.0 0.00 0.00 0.00 100 1013.4
20260502195604 84 260 6.0 10.0 0.00 0.00 0.00 100 1013.3
20260502195104 85 248 7.0 11.0 0.00 0.00 0.00 100 1013.4
20260502194604 84 247 5.0 12.0 0.00 0.00 0.00 100 1013.6
20260502194105 83 272 7.0 11.0 0.00 0.00 0.00 100 1013.7
20260502193741 84 253 6.0 10.0 0.00 0.00 0.00 100 1013.8
20260502193605 84 253 6.0 10.0 0.00 0.00 0.00 100 1013.8
20260502193105 84 285 7.0 10.0 0.00 0.00 0.00 100 1013.8
20260502192605 83 312 3.0 12.0 0.00 0.00 0.00 100 1013.8
20260502192105 84 272 8.0 15.0 0.00 0.00 0.00 100 1014.0
20260502191605 84 229 6.0 13.0 0.00 0.00 0.00 100 1013.8
20260502191105 84 267 11.0 15.0 0.00 0.00 0.00 100 1013.8
20260502190605 85 260 10.0 12.0 0.00 0.00 0.00 100 1013.8
20260502190105 85 289 7.0 13.0 0.00 0.00 0.00 100 1013.8
20260502185741 85 338 5.0 11.0 0.00 0.00 0.00 100 1013.8
20260502185605 85 338 5.0 11.0 0.00 0.00 0.00 100 1013.8
20260502185105 85 257 6.0 16.0 0.00 0.00 0.00 100 1013.9
20260502184605 85 262 6.0 13.0 0.00 0.00 0.00 100 1013.9
20260502184105 85 253 6.0 18.0 0.00 0.00 0.00 100 1014.0
20260502183605 86 288 11.0 19.0 0.00 0.00 0.00 100 1014.1
20260502183105 86 275 8.0 15.0 0.00 0.00 0.00 100 1013.9
20260502182605 86 225 13.0 22.0 0.00 0.00 0.00 100 1014.0
20260502182105 87 195 13.0 22.0 0.00 0.00 0.00 100 1014.0
20260502181605 87 239 19.0 22.0 0.00 0.00 0.00 100 1014.0
20260502181537 88 236 12.0 19.0 0.00 0.00 0.00 100 1014.2
20260502181105 88 236 12.0 19.0 0.00 0.00 0.00 100 1014.2
20260502181038 88 240 18.0 21.0 0.00 0.00 0.00 100 1014.3
20260502180605 87 261 8.0 21.0 0.00 0.00 0.00 100 1014.3
20260502180105 88 240 18.0 21.0 0.00 0.00 0.00 100 1014.3
20260502170105 87 251 9.0 25.0 0.00 0.00 0.00 100 1014.5
20260502164105 88 195 12.0 25.0 0.00 0.00 0.00 100 1014.5
20260502163605 90 215 11.0 27.0 0.00 0.00 0.00 100 1014.4
20260502163543 90 240 12.0 23.0 0.00 0.00 0.00 100 1014.4
20260502163105 90 240 12.0 23.0 0.00 0.00 0.00 100 1014.4
20260502162605 90 257 17.0 25.0 0.00 0.00 0.00 100 1014.4
20260502162105 91 212 7.0 24.0 0.00 0.00 0.00 100 1014.4
20260502161605 90 247 12.0 21.0 0.00 0.00 0.00 100 1014.3
20260502161105 90 255 19.0 22.0 0.00 0.00 0.00 100 1014.6
20260502160605 89 279 12.0 24.0 0.00 0.00 0.00 100 1014.6
20260502160147 90 226 11.0 22.0 0.00 0.00 0.00 100 1014.5
20260502160105 89 237 11.0 21.0 0.00 0.00 0.00 100 1014.5
20260502152106 88 271 14.0 21.0 0.00 0.00 0.00 100 1014.2
20260502151606 90 240 15.0 17.0 0.00 0.00 0.00 100 1014.2
20260502151408 86 219 10.0 23.0 0.00 0.00 0.00 100 1014.3
20260502151106 88 213 14.0 18.0 0.00 0.00 0.00 100 1014.2
20260502150606 86 219 10.0 23.0 0.00 0.00 0.00 100 1014.3
20260502150217 87 225 11.0 24.0 0.00 0.00 0.00 100 1013.9
20260502150106 86 187 10.0 21.0 0.00 0.00 0.00 100 1014.1
20260502140106 85 216 8.0 13.0 0.00 0.00 0.00 100 1013.7
20260502130606 78 205 4.0 6.0 0.00 0.00 0.00 100 1013.3
20260502130106 76 184 5.0 7.0 0.00 0.00 0.00 100 1013.3
20260502123606 73 165 3.0 5.0 0.00 0.00 0.00 100 1013.4
20260502123106 73 208 0.0 5.0 0.00 0.00 0.00 100 1013.3
20260502122606 73 164 0.0 0.0 0.00 0.00 0.00 100 1013.3
20260502122106 73 164 0.0 0.0 0.00 0.00 0.00 100 1013.3
20260502121606 72 164 0.0 0.0 0.00 0.00 0.00 100 1013.3
20260502121106 72 164 0.0 0.0 0.00 0.00 0.00 100 1013.3
20260502120606 71 164 0.0 0.0 0.00 0.00 0.00 100 1013.2
20260502120106 70 164 0.0 0.0 0.00 0.00 0.00 100 1013.1
20260502115606 69 164 0.0 0.0 0.00 0.00 0.00 100 1013.1
20260502115106 68 164 0.0 0.0 0.00 0.00 0.00 100 1013.1
20260502114606 68 164 0.0 2.0 0.00 0.00 0.00 100 1013.1
20260502114107 68 136 0.0 0.0 0.00 0.00 0.00 100 1013.2
20260502113607 68 136 0.0 0.0 0.00 0.00 0.00 100 1013.1
20260502113107 68 136 0.0 0.0 0.00 0.00 0.00 100 1013.1
20260502112607 67 136 0.0 0.0 0.00 0.00 0.00 100 1013.0
20260502112107 67 136 0.0 0.0 0.00 0.00 0.00 100 1013.0
20260502111607 66 136 0.0 0.0 0.00 0.00 0.00 100 1013.0
20260502111107 66 136 0.0 0.0 0.00 0.00 0.00 100 1012.9
20260502110607 66 136 0.0 3.0 0.00 0.00 0.00 100 1012.8
20260502110107 66 123 0.0 0.0 0.00 0.00 0.00 100 1012.7
20260502105607 66 123 0.0 0.0 0.00 0.00 0.00 100 1012.7
20260502105107 66 123 0.0 3.0 0.00 0.00 0.00 100 1012.8
20260502104607 66 161 0.0 5.0 0.00 0.00 0.00 100 1012.8
20260502104107 66 95 0.0 2.0 0.00 0.00 0.00 100 1012.8
20260502103607 66 223 0.0 3.0 0.00 0.00 0.00 100 1012.8
20260502103107 66 105 0.0 3.0 0.00 0.00 0.00 100 1012.7
20260502102607 66 153 0.0 7.0 0.00 0.00 0.00 100 1012.8
20260502102107 66 136 0.0 7.0 0.00 0.00 0.00 100 1012.9
20260502101607 66 66 0.0 7.0 0.00 0.00 0.00 100 1013.0
20260502101107 65 172 2.0 6.0 0.00 0.00 0.00 100 1013.0
20260502100607 65 151 0.0 3.0 0.00 0.00 0.00 100 1013.2
20260502100107 64 147 0.0 2.0 0.00 0.00 0.00 100 1013.2
20260502091107 62 232 0.0 0.0 0.00 0.00 0.00 100 1013.2
20260502091102 62 232 0.0 0.0 0.00 0.00 0.00 100 1013.4
20260502090607 62 232 0.0 0.0 0.00 0.00 0.00 100 1013.2
20260502090107 62 232 0.0 0.0 0.00 0.00 0.00 100 1013.4
20260502080107 63 232 0.0 0.0 0.00 0.00 0.00 100 1013.4
20260502071108 63 232 0.0 0.0 0.00 0.00 0.00 100 1013.8
20260502070608 63 232 0.0 0.0 0.00 0.00 0.00 100 1013.8
20260502070108 63 232 0.0 0.0 0.00 0.00 0.00 100 1013.8
20260502065608 63 232 0.0 0.0 0.00 0.00 0.00 100 1013.8
20260502065108 63 232 0.0 0.0 0.00 0.00 0.00 100 1013.7
20260502064608 63 232 0.0 0.0 0.00 0.00 0.00 100 1013.7
20260502064108 63 232 0.0 0.0 0.00 0.00 0.00 100 1013.8
20260502063608 63 232 0.0 0.0 0.00 0.00 0.00 100 1013.9
20260502063108 63 232 0.0 0.0 0.00 0.00 0.00 100 1013.8
20260502062608 63 232 0.0 0.0 0.00 0.00 0.00 100 1013.9
20260502062108 63 232 0.0 0.0 0.00 0.00 0.00 100 1014.1
20260502061608 63 232 0.0 0.0 0.00 0.00 0.00 100 1014.2
20260502061108 63 232 0.0 0.0 0.00 0.00 0.00 100 1014.2
20260502060608 63 232 0.0 0.0 0.00 0.00 0.00 100 1014.1
20260502060108 64 232 0.0 0.0 0.00 0.00 0.00 100 1014.1
20260502055608 64 232 0.0 0.0 0.00 0.00 0.00 100 1014.1
20260502055108 64 232 0.0 0.0 0.00 0.00 0.00 100 1014.1
20260502054608 64 232 0.0 0.0 0.00 0.00 0.00 100 1014.2
20260502054108 63 232 0.0 0.0 0.00 0.00 0.00 100 1014.3
20260502053608 64 232 0.0 0.0 0.00 0.00 0.00 100 1014.3
20260502053412 64 232 0.0 0.0 0.00 0.00 0.00 100 1014.3
20260502053108 64 232 0.0 0.0 0.00 0.00 0.00 100 1014.2
20260502052608 64 232 0.0 0.0 0.00 0.00 0.00 100 1014.3
20260502052108 64 232 0.0 0.0 0.00 0.00 0.00 100 1014.3
20260502051608 64 232 0.0 0.0 0.00 0.00 0.00 100 1014.4
20260502051108 64 232 0.0 0.0 0.00 0.00 0.00 100 1014.4
20260502050608 64 232 0.0 0.0 0.00 0.00 0.00 100 1014.5
20260502050108 64 232 0.0 0.0 0.00 0.00 0.00 100 1014.5
20260502045608 65 232 0.0 0.0 0.00 0.00 0.00 100 1014.6
20260502045108 65 232 0.0 0.0 0.00 0.00 0.00 100 1014.7
20260502044608 64 232 0.0 0.0 0.00 0.00 0.00 100 1014.7
20260502044108 64 232 0.0 0.0 0.00 0.00 0.00 100 1014.6
20260502043608 64 232 0.0 0.0 0.00 0.00 0.00 100 1014.6
20260502043108 65 232 0.0 0.0 0.00 0.00 0.00 100 1014.6
20260502042608 64 232 0.0 0.0 0.00 0.00 0.00 100 1014.6
20260502042108 64 232 0.0 0.0 0.00 0.00 0.00 100 1014.7
20260502041608 64 232 0.0 0.0 0.00 0.00 0.00 100 1014.7
20260502041108 64 232 0.0 0.0 0.00 0.00 0.00 100 1014.7
20260502040608 64 232 0.0 0.0 0.00 0.00 0.00 100 1014.6
20260502040108 64 232 0.0 0.0 0.00 0.00 0.00 100 1014.6
20260502035608 65 232 0.0 0.0 0.00 0.00 0.00 100 1014.6
20260502035109 65 232 0.0 0.0 0.00 0.00 0.00 100 1014.7
20260502034609 65 232 0.0 0.0 0.00 0.00 0.00 100 1014.7
20260502034109 65 232 0.0 0.0 0.00 0.00 0.00 100 1014.8
20260502033609 65 232 0.0 0.0 0.00 0.00 0.00 100 1014.8
20260502033109 65 232 0.0 0.0 0.00 0.00 0.00 100 1014.8
20260502032609 65 232 0.0 0.0 0.00 0.00 0.00 100 1014.7
20260502032109 65 232 0.0 0.0 0.00 0.00 0.00 100 1014.8
20260502031609 65 232 0.0 0.0 0.00 0.00 0.00 100 1014.8
20260502031109 66 232 0.0 0.0 0.00 0.00 0.00 100 1014.9
20260502030609 66 232 0.0 0.0 0.00 0.00 0.00 100 1015.0
20260502030109 66 232 0.0 0.0 0.00 0.00 0.00 100 1014.9
20260502025609 66 232 0.0 0.0 0.00 0.00 0.00 100 1014.9
20260502025109 66 232 0.0 0.0 0.00 0.00 0.00 100 1015.0
20260502024609 66 232 0.0 0.0 0.00 0.00 0.00 100 1015.0
20260502024109 66 232 0.0 0.0 0.00 0.00 0.00 100 1015.0